West Lebanon, NH

7:33 PM EDT on September 27, 2016 (GMT -0400)
Lebanon Municipal

Weather History for KLEB - October, 2012

Change the Weather History Date:

Friday, October 26, 2012

  Actual Average Record
Temperature  
Mean Temperature 54 °F -  
Max Temperature 66 °F 54 °F 79 °F (1963)
Min Temperature 42 °F 34 °F 20 °F (1941)
Degree Days  
Heating Degree Days 11    
Growing Degree Days 4 (Base 50)    
Moisture  
Dew Point 45 °F    
Average Humidity 83    
Maximum Humidity 93    
Minimum Humidity 59    
Precipitation  
Precipitation 0.00 in - - ()
Sea Level Pressure  
Sea Level Pressure 30.17 in    
Wind  
Wind Speed 1 mph (SW)    
Max Wind Speed 8 mph    
Max Gust Speed -    
Visibility 8 miles    
Events      
Averages and records for this station are not official NWS values.
T = Trace of Precipitation, MM = Missing Value Source: NWS Daily Summary

Daily Weather History Graph

Daily Weather History Graph

Search for Another Location

Airport or City:

Trip Planner

Search our weather history database for the weather conditions in past years. The results will help you decide how hot, cold, wet, or windy it might be!

Date:

Astronomy

Oct. 26, 2012 Rise Set
Actual Time 7:17 AM EDT 5:47 PM EDT
Civil Twilight 6:48 AM EDT 6:17 PM EDT
Nautical Twilight 6:14 AM EDT 6:50 PM EDT
Astronomical Twilight 5:41 AM EDT 7:24 PM EDT
Moon 4:06 PM EDT (10/26) 4:06 AM EDT (10/26)
Length of Visible Light 11h 29m
Length of Day
10h 30m
Waxing Gibbous, 91% of the Moon is Illuminated
Oct 26
Waxing Gibbous
Oct 29
Full
Nov 6
Last Quarter
Nov 13
New
Nov 20
First Quarter

Hourly Weather History & Observations

Time (EDT) Temp. Dew Point Humidity Pressure Visibility Wind Dir Wind Speed Gust Speed Precip Events Conditions
12:53 AM 45.0 °F 41.0 °F 86% 30.22 in 10.0 mi Calm Calm - N/A   Overcast
1:53 AM 44.1 °F 39.9 °F 85% 30.22 in 10.0 mi Calm Calm - N/A   Scattered Clouds
2:53 AM 44.1 °F 41.0 °F 89% 30.22 in 10.0 mi Calm Calm - N/A   Overcast
3:53 AM 42.1 °F 39.0 °F 89% 30.22 in 10.0 mi Calm Calm - N/A   Partly Cloudy
4:34 AM 42.8 °F 39.2 °F 87% 30.21 in 10.0 mi Calm Calm - N/A   Mostly Cloudy
4:53 AM 43.0 °F 39.9 °F 89% 30.21 in 10.0 mi Calm Calm - N/A   Overcast
5:53 AM 45.0 °F 42.1 °F 90% 30.20 in 10.0 mi Calm Calm - N/A   Overcast
6:53 AM 46.9 °F 43.0 °F 86% 30.20 in 10.0 mi Calm Calm - N/A   Overcast
7:08 AM 46.4 °F 42.8 °F 87% 30.20 in 10.0 mi Calm Calm - N/A   Overcast
7:21 AM 46.4 °F 42.8 °F 87% 30.20 in 10.0 mi Calm Calm - N/A   Overcast
7:53 AM 48.0 °F 43.0 °F 83% 30.21 in 10.0 mi Calm Calm - N/A   Overcast
8:32 AM 48.2 °F 42.8 °F 82% 30.21 in 9.0 mi Calm Calm - N/A   Overcast
9:53 AM 53.1 °F 46.0 °F 77% 30.21 in 9.0 mi Calm Calm - N/A   Overcast
10:25 AM 53.6 °F 46.4 °F 77% 30.21 in 8.0 mi Calm Calm - N/A   Overcast
11:00 AM 55.4 °F 48.2 °F 77% 30.21 in 10.0 mi SSW 8.1 mph - N/A   Overcast
11:07 AM 55.4 °F 48.2 °F 77% 30.21 in 10.0 mi SSW 4.6 mph - N/A   Overcast
11:53 AM 55.9 °F 48.9 °F 77% 30.19 in 10.0 mi Calm Calm - N/A   Overcast
12:53 PM 59.0 °F 50.0 °F 72% 30.17 in 10.0 mi West 4.6 mph - N/A   Scattered Clouds
1:53 PM 62.1 °F 51.1 °F 67% 30.15 in 10.0 mi WSW 6.9 mph - N/A   Clear
2:53 PM 64.9 °F 51.1 °F 61% 30.12 in 10.0 mi WSW 5.8 mph - N/A   Clear
3:53 PM 66.0 °F 51.1 °F 59% 30.11 in 10.0 mi West 5.8 mph - N/A   Clear
4:53 PM 64.9 °F 51.1 °F 61% 30.09 in 10.0 mi SSW 3.5 mph - N/A   Clear
5:53 PM 57.0 °F 51.1 °F 81% 30.10 in 10.0 mi Calm Calm - N/A   Clear
6:53 PM 57.0 °F 50.0 °F 77% 30.12 in 10.0 mi South 4.6 mph - N/A   Clear
7:53 PM 50.0 °F 46.0 °F 86% 30.12 in 9.0 mi Calm Calm - N/A   Clear
8:53 PM 48.9 °F 46.0 °F 90% 30.13 in 5.0 mi Calm Calm - N/A   Clear
9:53 PM 46.9 °F 44.1 °F 90% 30.13 in 4.0 mi Calm Calm - N/A   Clear
10:53 PM 46.9 °F 44.1 °F 90% 30.13 in 2.0 mi Calm Calm - N/A   Clear
10:55 PM 46.4 °F 42.8 °F 87% 30.13 in 1.5 mi Calm Calm - N/A   Partly Cloudy
11:23 PM 46.4 °F 42.8 °F 87% 30.13 in 1.8 mi Calm Calm - N/A   Partly Cloudy
11:37 PM 44.6 °F 42.8 °F 93% 30.12 in 0.8 mi Calm Calm - N/A   Mist
11:45 PM 44.6 °F 42.8 °F 93% 30.13 in 1.2 mi Calm Calm - N/A   Scattered Clouds
11:50 PM 44.6 °F 42.8 °F 93% 30.13 in 4.0 mi Calm Calm - N/A   Scattered Clouds
11:53 PM 45.0 °F 43.0 °F 93% 30.13 in 3.0 mi Calm Calm - N/A   Scattered Clouds
11:59 PM 46.4 °F 44.6 °F 93% 30.13 in 2.5 mi Calm Calm - N/A   Mostly Cloudy